COSMOS 2221

Last updated on Wed Sep 17 2025 00:02:15 GMT+0000 (Coordinated Universal Time)

1 22236U 92080A 25259.56801130 .00001757 00000+0 15728-3 0 9996 2 22236 82.5007 85.7168 0015855 60.4666 299.8133 14.95196478754764
UTC large
Height (km)
Speed (km/s)
/
Latitude / Longitude
Inclination (degrees)
Orbital Period (minutes)
Azimuth
Elevation
Range (km)
Doppler Factor

Next 0 passes for location: London (51.5072 / 0.1276)

Sorry there are no passes over London.